Regional Weather Roundup
Issued by NWS Green Bay, WI

Home | Current Version | Previous Version | Text Only | Print | Product List | Glossary On
Versions: 1 2 3 4 5 6 7 8 9 10 11 12 13 14 15 16 17 18 19 20 21 22 23 24 25 26 27 28 29 30 31 32 33 34 35 36 37 38 39 40 41 42 43 44 45 46 47 48 49 50
000
ASUS43 KGRB 190359
RWRGRB

NORTH-CENTRAL AND NORTHEAST WISCONSIN REGIONAL WEATHER ROUNDUP
NATIONAL WEATHER SERVICE GREEN BAY WI
1000 PM CST THU DEC 18 2014

WIZ005-009-010>012-018-019-190500-
NORTH CENTRAL WISCONSIN

CITY           SKY/WX    TMP DP  RH WIND       PRES   REMARKS
IRONWOOD       CLOUDY    14  12  92 CALM      30.22S
MANITOWISH WTR NOT AVBL
ARBOR VITAE    NOT AVBL
EAGLE RIVER    NOT AVBL
LAND O LAKES   NOT AVBL
RHINELANDER    CLEAR      6   4  91 CALM      30.22R
PHILLIPS       NOT AVBL
ANTIGO         NOT AVBL
TOMAHAWK       NOT AVBL
MERRILL        NOT AVBL
$$

WIZ013-073-190500-
NORTHEAST WISCONSIN

CITY           SKY/WX    TMP DP  RH WIND       PRES   REMARKS
IRON MOUNTAIN  PTCLDY     8   4  83 CALM      30.23S
MARINETTE      CLEAR     19  14  79 N5        30.26R
$$

WIZ017-030-035>037-045-190500-
CENTRAL WISCONSIN

CITY           SKY/WX    TMP DP  RH WIND       PRES   REMARKS
MEDFORD        NOT AVBL
WAUSAU         PTCLDY    18  15  88 N3        30.23R
MOSINEE        NOT AVBL
MARSHFIELD     CLOUDY    24  20  84 CALM      30.24R
WISC RAPIDS    PTCLDY    19  15  84 CALM      30.27R
STEVENS POINT  NOT AVBL
WAUPACA        NOT AVBL
SHAWANO        NOT AVBL
CLINTONVILLE   NOT AVBL
$$

WIZ038-039-048-051-190500-
FOX VALLEY

CITY           SKY/WX    TMP DP  RH WIND       PRES   REMARKS
NWS GREEN BAY  CLEAR     20  17  88 CALM      30.26S
APPLETON       CLEAR     19  16  86 W8        30.25S WCI   9
OSHKOSH        PTCLDY    22  17  81 W5        30.26R
FOND DU LAC    PTCLDY    20  16  84 CALM      30.26R
$$

WIZ022-050-052-190500-
EAST CENTRAL WISCONSIN

CITY           SKY/WX    TMP DP  RH WIND       PRES   REMARKS
STURGEON BAY   CLEAR     18  12  79 CALM      30.27S
MANITOWOC      NOT AVBL
SHEBOYGAN      CLEAR     20  16  84 NW5       30.25S
$$

LMZ563-521-522-541>543-190500-
LAKESHORE

STATION/POSITION TIME  TEMP    WIND        PRES    VSBY  WAVE
                       AIR SEA DIR/SP/G                  HT/PER
                 (UTC) (F)     (DEG/KT/KT) (MB)    (MI)  (FT/S)
SHEBOYGAN LKSHOR 0300   26 34  300/  7/  8 1025.7F
KEWAUNEE LKSHORE 0300   19     300/  5/  7 1023.7S
ALGOMA MARINA    0300          330/  8/  9   N/A
NORTHPORT PIER   0300   27      10/  6/  8 1024.7R
CHAMBERS ISLAND  0300   29      30/  9/ 12 1024.7S
MENOMINEE LKSHOR 0300   27     340/  9/ 10 1025.3R
$$


USA.gov is the U.S. government's official web portal to all federal, state and local government web resources and services.